Preview of NWS' New Version of Forecast
This preview is not operational and should not be used for support decisions.

Regional Weather Roundup (RWR)

Issued by State College, PA (CTP)

                            
503 
ASUS41 KCTP 212310
RWRCTP

REGIONAL WEATHER ROUNDUP
NATIONAL WEATHER SERVICE STATE COLLEGE PA
700 PM EDT THU JUN 21 2018

Note: "fair" indicates few or no clouds below 12,000 feet with no 
significant weather and/or obstructions to visibility.

* = STATION THAT DOES NOT REPORT PRECIPITATION /E.G. RAIN...SNOW...ETC/
    THUNDER OR FOG.

PAZ002>004-007>009-013>016-020>023-029>032-220000-
WESTERN PENNSYLVANIA
  
CITY           SKY/WX    TMP DP  RH WIND       PRES   REMARKS
ERIE           FAIR      70  59  68 NE15G25   29.86S                  
MEADVILLE      FAIR      73  64  73 NE8       29.85S                  
FRANKLIN*      FAIR      75  60  59 CALM        N/A                   
NEW CASTLE     FAIR      76  59  55 E5        29.83S                  
BEAVER COUNTY  SUNNY     75  61  60 CALM      29.82S                  
BUTLER*        FAIR      75  63  66 E5        29.83S                  
PITTSBURGH INT CLOUDY    75  63  66 E6        29.81S                  
PITTSBURGH     CLOUDY    73  65  75 NE5       29.81S                  
INDIANA*       SUNNY     75  61  60 CALM      29.87S                  
LATROBE        MOSUNNY   75  66  73 E7        29.82S                  
WASHINGTON CO* FAIR      74  66  76 E3        29.84S                  
$$

PAZ004>006-010>012-017>019-024>028-033>037-041-042-045-046-049>053-220000-
CENTRAL PENNSYLVANIA
  
CITY           SKY/WX    TMP DP  RH WIND       PRES   REMARKS
BRADFORD       FAIR      73  59  61 NE8       29.89R                  
DUBOIS         FAIR      74  59  59 E3        29.86R                  
CLEARFIELD     FAIR      76  56  49 CALM      29.86S                  
JOHNSTOWN      FAIR      70  58  65 E5        29.87R                  
ALTOONA        FAIR      76  61  59 E3        29.85S                  
STATE COLLEGE  SUNNY     77  57  50 NE6       29.84S                  
WILLIAMSPORT   FAIR      81  56  42 NE6       29.80R                  
SELINSGROVE    FAIR      81  55  40 CALM      29.80S                  
FT INDIANTOWN  PTSUNNY   81  56  42 N5        29.80R                  
CAPITAL CITY   FAIR      84  51  31 NE7       29.79S                  
HARRISBURG     PTSUNNY   83  53  35 NE5       29.78S                  
YORK           FAIR      80  59  48 N6        29.80R                  
$$

PAZ038>040-043-044-047-048-054-055-060>062-067>071-220000-
EASTERN PENNSYLVANIA
  
CITY           SKY/WX    TMP DP  RH WIND       PRES   REMARKS
SCRANTON       FAIR      80  58  46 N10       29.82R                  
MOUNT POCONO   FAIR      75  57  53 N12       29.86R                  
ALLENTOWN      FAIR      84  54  35 CALM      29.78R                  
QUAKERTOWN*    CLEAR     81  59  47 CALM      29.80R                  
READING        FAIR      83  56  39 W6        29.78R                  
LANCASTER      FAIR      83  55  38 NE6       29.79R                  
COATESVILLE    FAIR      79  50  36 CALM      29.82R                  
POTTSTOWN      FAIR      80  57  45 CALM      29.81R                  
BLUE BELL      FAIR      79  55  44 CALM      29.81R                  
DOYLESTOWN     FAIR      79  59  50 CALM      29.78S                  
WILLOW GROVE   NOT AVBL                                               
NORTH PHILA    FAIR      82  59  45 NE5       29.79R                  
PHILADELPHIA   PTSUNNY   81  62  52 CALM      29.77R                  
$$